| time (UTC) | temp C | wind direction | speed KPH | gust KPH | rain 1hr cm | rain 24hr cm | rain mn cm | humidity % | barometer mb |
| 20260905022745 | 12 | 69 | 1.6 | 3.2 | 0.00 | 0.00 | 0.00 | 84 | 732.1 |
| 20260905022251 | 12 | 82 | 0.0 | 3.2 | 0.00 | 0.00 | 0.00 | 96 | 732.1 |
| 20260905021745 | 12 | 64 | 1.6 | 3.2 | 0.00 | 0.00 | 0.00 | 97 | 732.1 |
| 20260905021251 | 12 | 26 | 3.2 | 4.8 | 0.00 | 0.00 | 0.00 | 96 | 732.1 |
| 20260905020745 | 12 | 358 | 3.2 | 4.8 | 0.00 | 0.00 | 0.00 | 95 | 732.1 |
| 20260905020250 | 13 | 354 | 3.2 | 4.8 | 0.00 | 0.00 | 0.00 | 90 | 732.1 |
| 20260905015751 | 13 | 318 | 1.6 | 4.8 | 0.00 | 0.00 | 0.00 | 73 | 732.1 |
| 20260905015245 | 13 | 329 | 1.6 | 3.2 | 0.00 | 0.00 | 0.00 | 73 | 732.1 |
| 20260905014745 | 13 | 318 | 1.6 | 4.8 | 0.00 | 0.00 | 0.00 | 72 | 732.1 |
| 20260905014245 | 13 | 331 | 3.2 | 4.8 | 0.00 | 0.00 | 0.00 | 72 | 732.1 |
| 20260905013745 | 13 | 319 | 1.6 | 6.4 | 0.00 | 0.00 | 0.00 | 72 | 732.1 |
| 20260905013245 | 13 | 305 | 3.2 | 8.0 | 0.00 | 0.00 | 0.00 | 71 | 732.1 |
| 20260905012745 | 13 | 329 | 4.8 | 8.0 | 0.00 | 0.00 | 0.00 | 71 | 732.1 |
| 20260905012248 | 13 | 324 | 4.8 | 11.3 | 0.00 | 0.00 | 0.00 | 71 | 732.1 |
| 20260905011745 | 14 | 331 | 6.4 | 9.7 | 0.00 | 0.00 | 0.00 | 72 | 732.1 |
| 20260905011245 | 14 | 331 | 1.6 | 8.0 | 0.00 | 0.00 | 0.00 | 83 | 732.5 |
| 20260905010745 | 14 | 26 | 3.2 | 4.8 | 0.00 | 0.00 | 0.00 | 71 | 732.5 |
| 20260905010245 | 14 | 244 | 1.6 | 4.8 | 0.00 | 0.00 | 0.00 | 81 | 732.5 |
| 20260905005748 | 15 | 332 | 1.6 | 8.0 | 0.00 | 0.00 | 0.00 | 79 | 732.5 |
| 20260905005245 | 15 | 161 | 0.0 | 8.0 | 0.00 | 0.00 | 0.00 | 77 | 732.5 |
| 20260905004745 | 15 | 110 | 1.6 | 8.0 | 0.00 | 0.00 | 0.00 | 70 | 732.5 |
| 20260905004245 | 15 | 153 | 0.0 | 8.0 | 0.00 | 0.00 | 0.00 | 57 | 732.5 |
| 20260905003745 | 16 | 13 | 3.2 | 9.7 | 0.00 | 0.00 | 0.00 | 58 | 732.5 |
| 20260905003244 | 16 | 172 | 3.2 | 12.9 | 0.00 | 0.00 | 0.00 | 60 | 732.5 |
| 20260905002745 | 16 | 188 | 6.4 | 12.9 | 0.00 | 0.00 | 0.00 | 58 | 732.1 |
| 20260905002245 | 15 | 234 | 1.6 | 8.0 | 0.00 | 0.00 | 0.00 | 58 | 732.5 |
| 20260905001750 | 15 | 193 | 3.2 | 11.3 | 0.00 | 0.00 | 0.00 | 57 | 732.5 |
| 20260905001245 | 15 | 196 | 4.8 | 14.5 | 0.00 | 0.00 | 0.00 | 57 | 732.5 |
| 20260905000745 | 15 | 199 | 4.8 | 16.1 | 0.00 | 0.00 | 0.00 | 55 | 732.5 |
| 20260905000245 | 16 | 178 | 4.8 | 14.5 | 0.00 | 0.00 | 0.00 | 55 | 732.5 |
| 20260904235749 | 16 | 238 | 1.6 | 16.1 | 0.00 | 0.00 | 0.00 | 61 | 732.5 |
| 20260904235250 | 16 | 182 | 8.0 | 16.1 | 0.00 | 0.00 | 0.00 | 57 | 732.1 |
| 20260904234750 | 16 | 160 | 1.6 | 12.9 | 0.00 | 0.00 | 0.00 | 54 | 732.1 |
| 20260904234245 | 16 | 185 | 6.4 | 12.9 | 0.00 | 0.00 | 0.00 | 53 | 732.5 |
| 20260904233745 | 16 | 208 | 4.8 | 12.9 | 0.00 | 0.00 | 0.00 | 51 | 732.1 |
| 20260904233250 | 17 | 163 | 4.8 | 11.3 | 0.00 | 0.00 | 0.00 | 52 | 732.5 |
| 20260904232750 | 17 | 204 | 3.2 | 17.7 | 0.00 | 0.00 | 0.00 | 56 | 732.5 |
| 20260904232253 | 16 | 183 | 6.4 | 17.7 | 0.00 | 0.00 | 0.00 | 57 | 732.5 |
| 20260904231750 | 16 | 211 | 3.2 | 14.5 | 0.00 | 0.00 | 0.00 | 54 | 732.5 |
| 20260904231256 | 17 | 196 | 4.8 | 12.9 | 0.00 | 0.00 | 0.00 | 54 | 732.5 |
| 20260904230745 | 16 | 183 | 6.4 | 14.5 | 0.00 | 0.00 | 0.00 | 50 | 732.5 |
| 20260904230245 | 17 | 181 | 6.4 | 11.3 | 0.00 | 0.00 | 0.00 | 51 | 732.5 |
| 20260904225751 | 17 | 196 | 6.4 | 12.9 | 0.00 | 0.00 | 0.00 | 52 | 732.5 |
| 20260904225253 | 16 | 239 | 3.2 | 11.3 | 0.00 | 0.00 | 0.00 | 50 | 732.5 |
| 20260904224750 | 17 | 191 | 6.4 | 14.5 | 0.00 | 0.00 | 0.00 | 50 | 732.5 |
| 20260904224245 | 16 | 199 | 8.0 | 17.7 | 0.00 | 0.00 | 0.00 | 48 | 732.5 |
| 20260904223746 | 16 | 162 | 4.8 | 17.7 | 0.00 | 0.00 | 0.00 | 50 | 732.5 |
| 20260904223245 | 17 | 197 | 8.0 | 16.1 | 0.00 | 0.00 | 0.00 | 51 | 732.5 |
| 20260904222745 | 17 | 194 | 6.4 | 17.7 | 0.00 | 0.00 | 0.00 | 52 | 732.5 |
| 20260904222248 | 16 | 182 | 6.4 | 20.9 | 0.00 | 0.00 | 0.00 | 52 | 732.5 |
| 20260904221745 | 17 | 212 | 6.4 | 14.5 | 0.00 | 0.00 | 0.00 | 53 | 732.5 |
| 20260904221248 | 16 | 208 | 4.8 | 17.7 | 0.00 | 0.00 | 0.00 | 53 | 732.8 |
| 20260904220745 | 16 | 145 | 4.8 | 20.9 | 0.00 | 0.00 | 0.00 | 50 | 732.5 |
| 20260904220246 | 16 | 202 | 9.7 | 24.1 | 0.00 | 0.00 | 0.00 | 53 | 732.8 |
| 20260904215745 | 16 | 206 | 6.4 | 20.9 | 0.00 | 0.00 | 0.00 | 53 | 732.8 |
| 20260904215245 | 16 | 189 | 12.9 | 24.1 | 0.00 | 0.00 | 0.00 | 53 | 732.8 |
| 20260904214750 | 16 | 196 | 8.0 | 22.5 | 0.00 | 0.00 | 0.00 | 54 | 732.8 |
| 20260904214245 | 16 | 200 | 8.0 | 24.1 | 0.00 | 0.00 | 0.00 | 53 | 732.8 |
| 20260904213745 | 16 | 195 | 8.0 | 22.5 | 0.00 | 0.00 | 0.00 | 50 | 732.8 |
| 20260904213245 | 16 | 187 | 14.5 | 25.7 | 0.00 | 0.00 | 0.00 | 53 | 732.8 |
| 20260904212746 | 16 | 189 | 12.9 | 24.1 | 0.00 | 0.00 | 0.00 | 55 | 732.8 |
| 20260904212248 | 16 | 189 | 12.9 | 25.7 | 0.00 | 0.00 | 0.00 | 54 | 732.8 |
| 20260904211745 | 16 | 185 | 11.3 | 25.7 | 0.00 | 0.00 | 0.00 | 54 | 732.8 |
| 20260904211245 | 16 | 171 | 16.1 | 24.1 | 0.00 | 0.00 | 0.00 | 52 | 732.8 |
| 20260904210745 | 16 | 176 | 12.9 | 22.5 | 0.00 | 0.00 | 0.00 | 50 | 732.8 |
| 20260904210245 | 16 | 189 | 14.5 | 22.5 | 0.00 | 0.00 | 0.00 | 53 | 732.8 |
| 20260904205744 | 16 | 193 | 9.7 | 22.5 | 0.00 | 0.00 | 0.00 | 53 | 732.8 |
| 20260904205245 | 16 | 192 | 9.7 | 24.1 | 0.00 | 0.00 | 0.00 | 54 | 732.8 |
| 20260904204745 | 16 | 204 | 6.4 | 20.9 | 0.00 | 0.00 | 0.00 | 53 | 732.8 |
| 20260904204248 | 16 | 202 | 11.3 | 25.7 | 0.00 | 0.00 | 0.00 | 49 | 732.8 |
| 20260904203748 | 16 | 187 | 9.7 | 20.9 | 0.00 | 0.00 | 0.00 | 51 | 732.8 |
| 20260904203247 | 16 | 191 | 8.0 | 29.0 | 0.00 | 0.00 | 0.00 | 49 | 732.8 |
| 20260904202748 | 15 | 199 | 11.3 | 25.7 | 0.00 | 0.00 | 0.00 | 53 | 732.8 |
| 20260904202245 | 15 | 185 | 11.3 | 25.7 | 0.00 | 0.00 | 0.00 | 49 | 732.8 |
| 20260904201748 | 16 | 193 | 11.3 | 24.1 | 0.00 | 0.00 | 0.00 | 53 | 732.8 |
| 20260904201245 | 15 | 186 | 14.5 | 29.0 | 0.00 | 0.00 | 0.00 | 53 | 732.8 |
| 20260904200745 | 15 | 183 | 12.9 | 25.7 | 0.00 | 0.00 | 0.00 | 56 | 732.8 |
| 20260904200245 | 15 | 177 | 17.7 | 25.7 | 0.00 | 0.00 | 0.00 | 53 | 732.8 |
| 20260904195748 | 15 | 174 | 14.5 | 24.1 | 0.00 | 0.00 | 0.00 | 53 | 732.8 |
| 20260904195245 | 15 | 186 | 11.3 | 24.1 | 0.00 | 0.00 | 0.00 | 58 | 732.8 |
| 20260904194745 | 15 | 177 | 12.9 | 27.4 | 0.00 | 0.00 | 0.00 | 54 | 732.8 |
| 20260904194245 | 15 | 186 | 17.7 | 27.4 | 0.00 | 0.00 | 0.00 | 58 | 732.8 |
| 20260904193745 | 15 | 195 | 12.9 | 30.6 | 0.00 | 0.00 | 0.00 | 55 | 732.8 |
| 20260904193244 | 15 | 177 | 14.5 | 33.8 | 0.00 | 0.00 | 0.00 | 58 | 732.8 |
| 20260904192748 | 15 | 188 | 14.5 | 33.8 | 0.00 | 0.00 | 0.00 | 60 | 732.8 |
| 20260904192245 | 15 | 187 | 14.5 | 30.6 | 0.00 | 0.00 | 0.00 | 56 | 733.1 |
| 20260904191744 | 15 | 191 | 6.4 | 20.9 | 0.00 | 0.00 | 0.00 | 57 | 733.1 |
| 20260904191245 | 15 | 199 | 9.7 | 33.8 | 0.00 | 0.00 | 0.00 | 61 | 733.1 |
| 20260904190747 | 15 | 190 | 12.9 | 33.8 | 0.00 | 0.00 | 0.00 | 60 | 733.1 |
| 20260904190251 | 15 | 188 | 8.0 | 27.4 | 0.00 | 0.00 | 0.00 | 61 | 733.1 |
| 20260904185745 | 15 | 188 | 12.9 | 27.4 | 0.00 | 0.00 | 0.00 | 61 | 733.1 |
| 20260904185248 | 15 | 169 | 14.5 | 25.7 | 0.00 | 0.00 | 0.00 | 66 | 733.1 |
| 20260904184745 | 14 | 193 | 12.9 | 29.0 | 0.00 | 0.00 | 0.00 | 64 | 733.1 |
| 20260904184244 | 15 | 187 | 19.3 | 25.7 | 0.00 | 0.00 | 0.00 | 63 | 733.1 |
| 20260904183745 | 14 | 188 | 12.9 | 32.2 | 0.00 | 0.00 | 0.00 | 68 | 733.1 |
| 20260904183248 | 15 | 188 | 14.5 | 24.1 | 0.00 | 0.00 | 0.00 | 65 | 733.1 |
| 20260904182744 | 15 | 188 | 11.3 | 27.4 | 0.00 | 0.00 | 0.00 | 66 | 733.1 |
| 20260904182245 | 14 | 173 | 16.1 | 27.4 | 0.00 | 0.00 | 0.00 | 66 | 733.1 |
| 20260904181744 | 14 | 181 | 14.5 | 27.4 | 0.00 | 0.00 | 0.00 | 65 | 733.1 |
| 20260904181248 | 14 | 189 | 16.1 | 27.4 | 0.00 | 0.00 | 0.00 | 67 | 733.1 |
| 20260904180745 | 14 | 185 | 16.1 | 30.6 | 0.00 | 0.00 | 0.00 | 66 | 733.1 |
| 20260904180245 | 14 | 188 | 11.3 | 22.5 | 0.00 | 0.00 | 0.00 | 67 | 733.1 |
| 20260904175753 | 14 | 192 | 9.7 | 25.7 | 0.00 | 0.00 | 0.00 | 67 | 733.1 |
| 20260904175245 | 14 | 194 | 14.5 | 25.7 | 0.00 | 0.00 | 0.00 | 67 | 733.1 |
| 20260904174748 | 13 | 173 | 12.9 | 22.5 | 0.00 | 0.00 | 0.00 | 72 | 733.1 |
| 20260904174244 | 13 | 189 | 16.1 | 29.0 | 0.00 | 0.00 | 0.00 | 70 | 733.1 |
| 20260904173748 | 13 | 186 | 16.1 | 33.8 | 0.00 | 0.00 | 0.00 | 68 | 733.1 |
| 20260904173245 | 13 | 184 | 14.5 | 32.2 | 0.00 | 0.00 | 0.00 | 71 | 732.8 |
| 20260904172747 | 13 | 187 | 16.1 | 27.4 | 0.00 | 0.00 | 0.00 | 69 | 732.8 |
| 20260904172245 | 13 | 181 | 12.9 | 25.7 | 0.00 | 0.00 | 0.00 | 72 | 732.8 |
| 20260904171745 | 13 | 190 | 16.1 | 25.7 | 0.00 | 0.00 | 0.00 | 70 | 732.8 |
| 20260904171251 | 13 | 185 | 11.3 | 30.6 | 0.00 | 0.00 | 0.00 | 69 | 732.8 |
| 20260904170745 | 13 | 198 | 12.9 | 25.7 | 0.00 | 0.00 | 0.00 | 72 | 732.8 |
| 20260904170248 | 13 | 187 | 14.5 | 30.6 | 0.00 | 0.00 | 0.00 | 71 | 732.8 |
| 20260904165745 | 13 | 188 | 19.3 | 33.8 | 0.00 | 0.00 | 0.00 | 71 | 732.5 |
| 20260904165245 | 13 | 186 | 14.5 | 30.6 | 0.00 | 0.00 | 0.00 | 73 | 732.5 |
| 20260904164744 | 13 | 185 | 20.9 | 35.4 | 0.00 | 0.00 | 0.00 | 74 | 732.1 |
| 20260904164249 | 13 | 187 | 22.5 | 35.4 | 0.00 | 0.00 | 0.00 | 74 | 732.1 |
| 20260904163751 | 13 | 190 | 19.3 | 35.4 | 0.00 | 0.00 | 0.00 | 75 | 732.1 |
| 20260904163248 | 13 | 187 | 16.1 | 29.0 | 0.00 | 0.00 | 0.00 | 75 | 732.1 |
| 20260904162748 | 12 | 191 | 17.7 | 32.2 | 0.00 | 0.00 | 0.00 | 78 | 732.1 |
| 20260904162245 | 12 | 189 | 19.3 | 37.0 | 0.00 | 0.00 | 0.00 | 79 | 732.1 |
| 20260904161744 | 12 | 185 | 19.3 | 32.2 | 0.00 | 0.00 | 0.00 | 80 | 732.1 |
| 20260904161248 | 12 | 188 | 24.1 | 33.8 | 0.00 | 0.00 | 0.00 | 81 | 732.1 |
| 20260904160751 | 12 | 187 | 22.5 | 41.8 | 0.00 | 0.00 | 0.00 | 82 | 731.8 |
| 20260904160247 | 12 | 183 | 24.1 | 41.8 | 0.00 | 0.00 | 0.00 | 82 | 731.8 |
| 20260904155747 | 12 | 186 | 22.5 | 35.4 | 0.00 | 0.00 | 0.00 | 85 | 731.8 |
| 20260904155245 | 12 | 186 | 25.7 | 37.0 | 0.00 | 0.00 | 0.00 | 86 | 731.8 |
| 20260904154747 | 11 | 188 | 27.4 | 41.8 | 0.00 | 0.00 | 0.00 | 86 | 731.4 |
| 20260904154245 | 11 | 189 | 29.0 | 41.8 | 0.00 | 0.00 | 0.00 | 86 | 731.4 |
| 20260904153745 | 11 | 189 | 27.4 | 41.8 | 0.00 | 0.00 | 0.00 | 89 | 731.4 |
| 20260904153247 | 11 | 187 | 25.7 | 43.5 | 0.00 | 0.00 | 0.00 | 89 | 731.4 |
| 20260904152744 | 11 | 189 | 27.4 | 43.5 | 0.00 | 0.00 | 0.00 | 89 | 731.4 |
| 20260904152244 | 11 | 188 | 33.8 | 45.1 | 0.00 | 0.00 | 0.00 | 89 | 731.4 |
| 20260904151747 | 11 | 187 | 27.4 | 41.8 | 0.00 | 0.00 | 0.00 | 91 | 731.4 |
| 20260904151244 | 10 | 186 | 30.6 | 38.6 | 0.00 | 0.00 | 0.00 | 92 | 731.4 |
| 20260904150747 | 10 | 186 | 30.6 | 46.7 | 0.00 | 0.00 | 0.00 | 93 | 731.4 |
| 20260904150245 | 10 | 185 | 32.2 | 45.1 | 0.00 | 0.00 | 0.00 | 94 | 731.4 |
| 20260904145745 | 10 | 187 | 30.6 | 41.8 | 0.00 | 0.00 | 0.00 | 95 | 731.1 |
| 20260904145244 | 10 | 185 | 32.2 | 40.2 | 0.00 | 0.00 | 0.00 | 95 | 731.1 |
| 20260904144745 | 10 | 185 | 30.6 | 43.5 | 0.00 | 0.00 | 0.00 | 95 | 731.1 |
| 20260904144245 | 10 | 184 | 30.6 | 40.2 | 0.00 | 0.00 | 0.00 | 94 | 731.1 |
| 20260904143748 | 10 | 182 | 29.0 | 38.6 | 0.00 | 0.00 | 0.00 | 93 | 731.1 |
| 20260904143245 | 9 | 179 | 25.7 | 41.8 | 0.00 | 0.00 | 0.00 | 93 | 731.1 |
| 20260904142744 | 9 | 179 | 27.4 | 40.2 | 0.00 | 0.00 | 0.00 | 94 | 731.1 |
| 20260904142245 | 9 | 180 | 27.4 | 35.4 | 0.00 | 0.00 | 0.00 | 94 | 730.8 |
| 20260904141748 | 8 | 183 | 29.0 | 40.2 | 0.00 | 0.00 | 0.00 | 94 | 730.8 |
| 20260904141251 | 8 | 180 | 25.7 | 38.6 | 0.00 | 0.00 | 0.00 | 94 | 730.8 |
| 20260904140748 | 8 | 182 | 27.4 | 38.6 | 0.00 | 0.00 | 0.00 | 94 | 730.8 |
| 20260904140246 | 8 | 181 | 27.4 | 45.1 | 0.00 | 0.00 | 0.00 | 94 | 730.8 |
| 20260904135747 | 8 | 183 | 27.4 | 41.8 | 0.00 | 0.00 | 0.00 | 95 | 730.4 |
| 20260904135245 | 8 | 183 | 29.0 | 40.2 | 0.00 | 0.00 | 0.00 | 95 | 730.4 |
| 20260904134745 | 8 | 184 | 27.4 | 41.8 | 0.00 | 0.00 | 0.00 | 96 | 730.4 |
| 20260904134251 | 8 | 183 | 30.6 | 41.8 | 0.00 | 0.00 | 0.00 | 97 | 730.4 |
| 20260904133747 | 8 | 184 | 27.4 | 40.2 | 0.00 | 0.00 | 0.00 | 97 | 730.4 |
| 20260904133245 | 8 | 183 | 30.6 | 45.1 | 0.00 | 0.00 | 0.00 | 95 | 730.4 |
| 20260904132744 | 8 | 186 | 32.2 | 45.1 | 0.00 | 0.00 | 0.00 | 95 | 730.4 |
| 20260904132244 | 9 | 186 | 32.2 | 46.7 | 0.00 | 0.00 | 0.00 | 95 | 730.1 |
| 20260904131748 | 9 | 188 | 33.8 | 48.3 | 0.00 | 0.00 | 0.00 | 95 | 730.1 |
| 20260904131247 | 9 | 187 | 33.8 | 51.5 | 0.00 | 0.00 | 0.00 | 94 | 730.1 |
| 20260904130745 | 9 | 187 | 37.0 | 48.3 | 0.00 | 0.00 | 0.00 | 93 | 729.8 |
| 20260904130248 | 9 | 188 | 35.4 | 49.9 | 0.00 | 0.00 | 0.00 | 92 | 729.8 |
| 20260904125748 | 9 | 187 | 35.4 | 53.1 | 0.00 | 0.00 | 0.00 | 92 | 729.8 |
| 20260904125245 | 9 | 187 | 35.4 | 49.9 | 0.00 | 0.00 | 0.00 | 93 | 729.8 |
| 20260904124745 | 9 | 188 | 35.4 | 49.9 | 0.00 | 0.00 | 0.00 | 92 | 729.8 |
| 20260904124245 | 9 | 186 | 33.8 | 46.7 | 0.00 | 0.00 | 0.00 | 91 | 729.8 |
| 20260904123746 | 9 | 185 | 33.8 | 51.5 | 0.00 | 0.00 | 0.00 | 89 | 729.8 |
| 20260904123244 | 9 | 187 | 35.4 | 45.1 | 0.00 | 0.00 | 0.00 | 87 | 729.8 |
| 20260904122744 | 9 | 187 | 37.0 | 48.3 | 0.00 | 0.00 | 0.00 | 87 | 729.8 |
| 20260904122247 | 9 | 187 | 33.8 | 48.3 | 0.00 | 0.00 | 0.00 | 86 | 729.4 |
| 20260904121744 | 10 | 187 | 37.0 | 49.9 | 0.00 | 0.00 | 0.00 | 78 | 729.4 |
| 20260904121248 | 10 | 188 | 33.8 | 49.9 | 0.00 | 0.00 | 0.00 | 77 | 729.8 |
| 20260904120744 | 10 | 188 | 35.4 | 51.5 | 0.00 | 0.00 | 0.00 | 79 | 729.8 |
| 20260904120244 | 10 | 186 | 35.4 | 48.3 | 0.00 | 0.00 | 0.00 | 78 | 729.8 |
| 20260904115745 | 10 | 186 | 37.0 | 53.1 | 0.00 | 0.00 | 0.00 | 75 | 729.8 |
| 20260904115245 | 10 | 187 | 37.0 | 49.9 | 0.00 | 0.00 | 0.00 | 71 | 729.4 |
| 20260904114744 | 10 | 186 | 35.4 | 48.3 | 0.00 | 0.00 | 0.00 | 67 | 729.4 |
| 20260904114244 | 10 | 186 | 37.0 | 49.9 | 0.00 | 0.00 | 0.00 | 66 | 729.4 |
| 20260904113745 | 10 | 187 | 38.6 | 57.9 | 0.00 | 0.00 | 0.00 | 65 | 729.4 |
| 20260904113245 | 10 | 186 | 37.0 | 51.5 | 0.00 | 0.00 | 0.00 | 64 | 729.4 |
| 20260904112748 | 10 | 187 | 40.2 | 53.1 | 0.00 | 0.00 | 0.00 | 59 | 729.4 |
| 20260904112247 | 10 | 187 | 38.6 | 54.7 | 0.00 | 0.00 | 0.00 | 56 | 729.4 |
| 20260904111745 | 10 | 186 | 40.2 | 54.7 | 0.00 | 0.00 | 0.00 | 55 | 729.4 |
| 20260904111245 | 10 | 188 | 40.2 | 59.5 | 0.00 | 0.00 | 0.00 | 53 | 729.4 |
| 20260904110745 | 10 | 187 | 40.2 | 53.1 | 0.00 | 0.00 | 0.00 | 52 | 729.4 |
| 20260904110244 | 10 | 188 | 38.6 | 53.1 | 0.00 | 0.00 | 0.00 | 54 | 729.4 |
| 20260904105745 | 10 | 188 | 40.2 | 51.5 | 0.00 | 0.00 | 0.00 | 50 | 729.4 |
| 20260904105244 | 10 | 188 | 38.6 | 51.5 | 0.00 | 0.00 | 0.00 | 50 | 729.4 |
| 20260904104748 | 10 | 188 | 38.6 | 51.5 | 0.00 | 0.00 | 0.00 | 49 | 729.4 |
| 20260904104244 | 10 | 187 | 37.0 | 49.9 | 0.00 | 0.00 | 0.00 | 48 | 729.4 |
| 20260904103744 | 10 | 187 | 40.2 | 49.9 | 0.00 | 0.00 | 0.00 | 46 | 729.4 |
| 20260904103248 | 10 | 188 | 38.6 | 53.1 | 0.00 | 0.00 | 0.00 | 44 | 729.4 |
| 20260904102748 | 11 | 188 | 40.2 | 53.1 | 0.00 | 0.00 | 0.00 | 46 | 729.4 |
| 20260904102248 | 11 | 186 | 38.6 | 53.1 | 0.00 | 0.00 | 0.00 | 45 | 729.4 |
| 20260904101745 | 11 | 188 | 38.6 | 51.5 | 0.00 | 0.00 | 0.00 | 45 | 729.4 |
| 20260904101245 | 11 | 187 | 40.2 | 53.1 | 0.00 | 0.00 | 0.00 | 47 | 729.4 |
| 20260904100745 | 11 | 187 | 38.6 | 51.5 | 0.00 | 0.00 | 0.00 | 49 | 729.4 |
| 20260904100245 | 11 | 187 | 38.6 | 53.1 | 0.00 | 0.00 | 0.00 | 46 | 729.4 |
| 20260904095745 | 11 | 188 | 37.0 | 49.9 | 0.00 | 0.00 | 0.00 | 47 | 729.4 |
| 20260904095244 | 11 | 188 | 37.0 | 51.5 | 0.00 | 0.00 | 0.00 | 46 | 729.4 |
| 20260904094747 | 11 | 187 | 37.0 | 49.9 | 0.00 | 0.00 | 0.00 | 46 | 729.8 |
| 20260904094244 | 11 | 187 | 37.0 | 53.1 | 0.00 | 0.00 | 0.00 | 45 | 729.8 |
| 20260904093747 | 11 | 187 | 40.2 | 54.7 | 0.00 | 0.00 | 0.00 | 43 | 729.4 |
| 20260904093247 | 11 | 186 | 38.6 | 51.5 | 0.00 | 0.00 | 0.00 | 45 | 729.8 |
| 20260904092744 | 11 | 186 | 40.2 | 51.5 | 0.00 | 0.00 | 0.00 | 44 | 729.4 |
| 20260904092245 | 11 | 187 | 38.6 | 51.5 | 0.00 | 0.00 | 0.00 | 46 | 729.8 |
| 20260904091744 | 11 | 186 | 40.2 | 54.7 | 0.00 | 0.00 | 0.00 | 49 | 729.8 |
| 20260904091246 | 11 | 185 | 40.2 | 54.7 | 0.00 | 0.00 | 0.00 | 51 | 729.8 |
| 20260904090744 | 11 | 186 | 38.6 | 57.9 | 0.00 | 0.00 | 0.00 | 52 | 729.8 |
| 20260904090244 | 11 | 186 | 40.2 | 53.1 | 0.00 | 0.00 | 0.00 | 54 | 729.8 |
| 20260904085747 | 11 | 187 | 38.6 | 53.1 | 0.00 | 0.00 | 0.00 | 55 | 729.8 |
| 20260904085251 | 11 | 187 | 38.6 | 54.7 | 0.00 | 0.00 | 0.00 | 58 | 729.8 |
| 20260904084747 | 10 | 186 | 38.6 | 48.3 | 0.00 | 0.00 | 0.00 | 58 | 729.8 |
| 20260904084244 | 10 | 186 | 37.0 | 49.9 | 0.00 | 0.00 | 0.00 | 57 | 729.8 |
| 20260904083745 | 11 | 185 | 38.6 | 56.3 | 0.00 | 0.00 | 0.00 | 59 | 729.8 |
| 20260904083246 | 11 | 187 | 38.6 | 48.3 | 0.00 | 0.00 | 0.00 | 59 | 729.8 |
| 20260904082748 | 11 | 187 | 38.6 | 51.5 | 0.00 | 0.00 | 0.00 | 59 | 729.8 |
| 20260904082246 | 11 | 186 | 38.6 | 56.3 | 0.00 | 0.00 | 0.00 | 60 | 730.1 |
| 20260904081748 | 11 | 188 | 38.6 | 53.1 | 0.00 | 0.00 | 0.00 | 61 | 730.1 |
| 20260904081244 | 11 | 186 | 40.2 | 49.9 | 0.00 | 0.00 | 0.00 | 62 | 730.1 |
| 20260904080750 | 11 | 187 | 38.6 | 53.1 | 0.00 | 0.00 | 0.00 | 62 | 730.1 |
| 20260904080245 | 11 | 186 | 40.2 | 53.1 | 0.00 | 0.00 | 0.00 | 63 | 730.1 |
| 20260904075744 | 11 | 186 | 40.2 | 51.5 | 0.00 | 0.00 | 0.00 | 65 | 730.1 |
| 20260904075244 | 11 | 187 | 40.2 | 54.7 | 0.00 | 0.00 | 0.00 | 66 | 730.1 |
| 20260904074745 | 11 | 187 | 41.8 | 54.7 | 0.00 | 0.00 | 0.00 | 67 | 730.1 |
| 20260904074248 | 11 | 187 | 38.6 | 53.1 | 0.00 | 0.00 | 0.00 | 69 | 730.4 |
| 20260904073748 | 11 | 188 | 38.6 | 54.7 | 0.00 | 0.00 | 0.00 | 70 | 730.1 |
| 20260904073244 | 11 | 187 | 37.0 | 49.9 | 0.00 | 0.00 | 0.00 | 71 | 730.4 |
| 20260904072748 | 11 | 188 | 35.4 | 51.5 | 0.00 | 0.00 | 0.00 | 72 | 730.4 |
| 20260904072244 | 11 | 188 | 38.6 | 51.5 | 0.00 | 0.00 | 0.00 | 72 | 730.4 |
| 20260904071744 | 11 | 184 | 37.0 | 53.1 | 0.00 | 0.00 | 0.00 | 73 | 730.4 |
| 20260904071245 | 11 | 188 | 35.4 | 51.5 | 0.00 | 0.00 | 0.00 | 72 | 730.1 |
| 20260904070744 | 11 | 187 | 40.2 | 53.1 | 0.00 | 0.00 | 0.00 | 74 | 730.4 |
| 20260904070248 | 11 | 189 | 38.6 | 54.7 | 0.00 | 0.00 | 0.00 | 75 | 730.4 |
| 20260904065747 | 11 | 187 | 40.2 | 54.7 | 0.00 | 0.00 | 0.00 | 75 | 730.4 |
| 20260904065248 | 11 | 187 | 40.2 | 54.7 | 0.00 | 0.00 | 0.00 | 77 | 730.4 |
| 20260904064748 | 11 | 188 | 38.6 | 54.7 | 0.00 | 0.00 | 0.00 | 77 | 730.1 |
| 20260904064248 | 11 | 187 | 40.2 | 56.3 | 0.00 | 0.00 | 0.00 | 77 | 730.4 |
| 20260904063744 | 11 | 187 | 40.2 | 53.1 | 0.00 | 0.00 | 0.00 | 78 | 730.4 |
| 20260904063244 | 11 | 188 | 37.0 | 54.7 | 0.00 | 0.00 | 0.00 | 78 | 730.4 |
| 20260904062744 | 11 | 188 | 38.6 | 53.1 | 0.00 | 0.00 | 0.00 | 78 | 730.4 |
| 20260904062247 | 11 | 187 | 37.0 | 54.7 | 0.00 | 0.00 | 0.00 | 79 | 730.4 |
| 20260904061744 | 11 | 187 | 38.6 | 51.5 | 0.00 | 0.00 | 0.00 | 79 | 730.4 |
| 20260904061248 | 11 | 188 | 38.6 | 54.7 | 0.00 | 0.00 | 0.00 | 77 | 730.4 |
| 20260904060750 | 11 | 187 | 38.6 | 56.3 | 0.00 | 0.00 | 0.00 | 78 | 730.4 |
| 20260904060245 | 11 | 187 | 40.2 | 56.3 | 0.00 | 0.00 | 0.00 | 80 | 730.4 |
| 20260904055744 | 11 | 187 | 40.2 | 53.1 | 0.00 | 0.00 | 0.00 | 81 | 730.4 |
| 20260904055244 | 11 | 186 | 38.6 | 51.5 | 0.00 | 0.00 | 0.00 | 83 | 730.4 |
| 20260904054744 | 11 | 185 | 40.2 | 49.9 | 0.00 | 0.00 | 0.00 | 83 | 730.4 |
| 20260904054247 | 10 | 186 | 37.0 | 48.3 | 0.00 | 0.00 | 0.00 | 84 | 730.8 |
| 20260904053744 | 10 | 185 | 35.4 | 48.3 | 0.00 | 0.00 | 0.00 | 83 | 730.8 |
| 20260904053244 | 10 | 184 | 35.4 | 49.9 | 0.00 | 0.00 | 0.00 | 83 | 730.4 |
| 20260904052748 | 11 | 185 | 35.4 | 48.3 | 0.00 | 0.00 | 0.00 | 83 | 730.8 |
| 20260904052245 | 11 | 185 | 35.4 | 53.1 | 0.00 | 0.00 | 0.00 | 82 | 730.8 |
| 20260904051747 | 11 | 185 | 35.4 | 48.3 | 0.00 | 0.00 | 0.00 | 79 | 730.8 |
| 20260904051244 | 11 | 186 | 35.4 | 49.9 | 0.00 | 0.00 | 0.00 | 78 | 730.8 |
| 20260904050744 | 11 | 186 | 33.8 | 51.5 | 0.00 | 0.00 | 0.00 | 77 | 730.8 |
| 20260904050248 | 11 | 184 | 33.8 | 49.9 | 0.00 | 0.00 | 0.00 | 77 | 730.8 |
| 20260904045747 | 11 | 183 | 32.2 | 51.5 | 0.00 | 0.00 | 0.00 | 74 | 730.8 |
| 20260904045244 | 11 | 183 | 32.2 | 51.5 | 0.00 | 0.00 | 0.00 | 75 | 730.8 |
| 20260904044745 | 11 | 184 | 37.0 | 49.9 | 0.00 | 0.00 | 0.00 | 74 | 730.8 |
| 20260904044244 | 11 | 185 | 37.0 | 46.7 | 0.00 | 0.00 | 0.00 | 74 | 730.8 |
| 20260904043744 | 11 | 187 | 35.4 | 49.9 | 0.00 | 0.00 | 0.00 | 75 | 730.8 |
| 20260904043245 | 11 | 187 | 35.4 | 45.1 | 0.00 | 0.00 | 0.00 | 76 | 730.4 |
| 20260904042744 | 10 | 188 | 33.8 | 46.7 | 0.00 | 0.00 | 0.00 | 77 | 730.8 |
| 20260904042245 | 10 | 189 | 32.2 | 46.7 | 0.00 | 0.00 | 0.00 | 77 | 730.8 |
| 20260904041745 | 10 | 190 | 30.6 | 45.1 | 0.00 | 0.00 | 0.00 | 76 | 730.8 |
| 20260904041247 | 10 | 191 | 29.0 | 48.3 | 0.00 | 0.00 | 0.00 | 74 | 730.8 |
| 20260904040745 | 10 | 190 | 30.6 | 45.1 | 0.00 | 0.00 | 0.00 | 73 | 730.8 |
| 20260904040244 | 10 | 188 | 32.2 | 40.2 | 0.00 | 0.00 | 0.00 | 71 | 730.8 |
| 20260904035748 | 10 | 189 | 29.0 | 40.2 | 0.00 | 0.00 | 0.00 | 71 | 730.8 |
| 20260904035244 | 10 | 187 | 29.0 | 41.8 | 0.00 | 0.00 | 0.00 | 70 | 730.4 |
| 20260904034750 | 10 | 190 | 25.7 | 38.6 | 0.00 | 0.00 | 0.00 | 68 | 730.8 |
| 20260904034248 | 10 | 190 | 24.1 | 38.6 | 0.00 | 0.00 | 0.00 | 65 | 730.8 |
| 20260904033750 | 10 | 188 | 24.1 | 40.2 | 0.00 | 0.00 | 0.00 | 63 | 730.4 |
| 20260904033250 | 11 | 188 | 24.1 | 32.2 | 0.00 | 0.00 | 0.00 | 58 | 730.8 |
| 20260904032745 | 11 | 186 | 24.1 | 35.4 | 0.00 | 0.00 | 0.00 | 54 | 730.8 |
| 20260904032244 | 11 | 187 | 22.5 | 33.8 | 0.00 | 0.00 | 0.00 | 52 | 730.8 |
| 20260904031750 | 11 | 187 | 20.9 | 32.2 | 0.00 | 0.00 | 0.00 | 46 | 730.8 |
| 20260904031244 | 11 | 189 | 20.9 | 30.6 | 0.00 | 0.00 | 0.00 | 38 | 730.8 |
| 20260904030744 | 11 | 186 | 22.5 | 30.6 | 0.00 | 0.00 | 0.00 | 41 | 730.8 |
| 20260904030245 | 11 | 186 | 20.9 | 27.4 | 0.00 | 0.00 | 0.00 | 42 | 730.8 |
| 20260904025745 | 11 | 187 | 19.3 | 27.4 | 0.00 | 0.00 | 0.00 | 44 | 730.8 |
| 20260904025250 | 11 | 185 | 19.3 | 22.5 | 0.00 | 0.00 | 0.00 | 50 | 730.8 |
| 20260904024744 | 12 | 187 | 16.1 | 22.5 | 0.00 | 0.00 | 0.00 | 52 | 731.1 |
| 20260904024248 | 12 | 187 | 16.1 | 24.1 | 0.00 | 0.00 | 0.00 | 53 | 731.1 |
| 20260904023744 | 12 | 187 | 12.9 | 20.9 | 0.00 | 0.00 | 0.00 | 49 | 731.1 |
| 20260904023244 | 12 | 196 | 11.3 | 19.3 | 0.00 | 0.00 | 0.00 | 50 | 731.1 |